Homer, AK

7:23 AM AKDT on August 23, 2019 (GMT -0800)
Homer

Weather History for PAHO - May, 2019

Change the Weather History Date:

Friday, May 24, 2019

  Actual Average Record
Temperature  
Mean Temperature 48 °F -  
Max Temperature 59 °F 53 °F 67 °F (1997)
Min Temperature 39 °F 37 °F 25 °F (1971)
Degree Days  
Heating Degree Days 17    
Moisture  
Dew Point 41 °F    
Average Humidity 74    
Maximum Humidity 97    
Minimum Humidity 55    
Precipitation  
Precipitation 0.00 in - - ()
Sea Level Pressure  
Sea Level Pressure 30.22 in    
Wind  
Wind Speed 4 mph (West)    
Max Wind Speed 17 mph    
Max Gust Speed 18 mph    
Visibility 10 miles    
Events      
Averages and records for this station are not official NWS values.
T = Trace of Precipitation, MM = Missing Value Source: NWS Daily Summary

Daily Weather History Graph

Daily Weather History Graph

Search for Another Location

Airport or City:

Astronomy

May. 24, 2019 Rise Set
Actual Time 5:11 AM AKDT 10:55 PM AKDT
Civil Twilight 4:01 AM AKDT 12:06 AM AKDT
Nautical Twilight 2:35 AM AKDT 1:30 AM AKDT
Astronomical Twilight Sun does not set Sun does not set
Moon 3:17 AM AKDT (5/24) 10:33 AM AKDT (5/24)
Length of Visible Light 20h 05m
Length of Day
17h 43m
Waning Gibbous, 67% of the Moon is Illuminated
May 24
Waning Gibbous
May 26
Last Quarter
Jun 3
New
Jun 9
First Quarter
Jun 17
Full

Hourly Weather History & Observations

Time (AKDT) Temp. Windchill Dew Point Humidity Pressure Visibility Wind Dir Wind Speed Gust Speed Precip Events Conditions
12:53 AM 45.0 °F - 39.0 °F 80% 30.20 in 10.0 mi Calm Calm - N/A   Partly Cloudy
1:53 AM 41.0 °F - 37.9 °F 89% 30.21 in 10.0 mi Calm Calm - N/A   Mostly Cloudy
2:53 AM 41.0 °F 39.0 °F 37.9 °F 89% 30.21 in 10.0 mi NE 3.5 mph - N/A   Clear
3:53 AM 39.9 °F - 37.9 °F 93% 30.22 in 10.0 mi Calm Calm - N/A   Mostly Cloudy
4:53 AM 39.9 °F - 39.0 °F 97% 30.22 in 10.0 mi Calm Calm - N/A   Overcast
5:53 AM 43.0 °F 40.3 °F 39.9 °F 89% 30.22 in 10.0 mi NE 4.6 mph - N/A   Overcast
6:53 AM 44.1 °F 42.5 °F 42.1 °F 93% 30.22 in 10.0 mi NNE 3.5 mph - N/A   Mostly Cloudy
7:53 AM 46.9 °F - 43.0 °F 86% 30.22 in 10.0 mi East 3.5 mph - N/A   Mostly Cloudy
8:53 AM 48.9 °F - 44.1 °F 83% 30.24 in 10.0 mi Calm Calm - N/A   Mostly Cloudy
9:53 AM 52.0 °F - 44.1 °F 74% 30.24 in 10.0 mi Calm Calm - N/A   Mostly Cloudy
10:53 AM 53.1 °F - 43.0 °F 69% 30.25 in 10.0 mi WSW 10.4 mph - N/A   Clear
11:53 AM 52.0 °F - 44.1 °F 74% 30.25 in 10.0 mi WSW 12.7 mph 18.4 mph N/A   Clear
12:53 PM 55.0 °F - 44.1 °F 67% 30.25 in 10.0 mi WSW 6.9 mph - N/A   Clear
1:53 PM 55.0 °F - 42.1 °F 62% 30.25 in 10.0 mi West 12.7 mph - N/A   Clear
2:53 PM 57.0 °F - 42.1 °F 57% 30.25 in 10.0 mi WSW 10.4 mph - N/A   Clear
3:53 PM 57.0 °F - 41.0 °F 55% 30.23 in 10.0 mi WSW 10.4 mph - N/A   Clear
4:53 PM 57.0 °F - 41.0 °F 55% 30.21 in 10.0 mi WSW 10.4 mph - N/A   Clear
5:53 PM 55.9 °F - 41.0 °F 57% 30.21 in 10.0 mi WSW 13.8 mph - N/A   Partly Cloudy
6:53 PM 54.0 °F - 39.9 °F 59% 30.19 in 10.0 mi WSW 17.3 mph - N/A   Clear
7:53 PM 54.0 °F - 39.0 °F 57% 30.18 in 10.0 mi WSW 12.7 mph - N/A   Partly Cloudy
8:53 PM 51.1 °F - 42.1 °F 71% 30.18 in 10.0 mi WSW 10.4 mph - N/A   Clear
9:53 PM 50.0 °F - 39.9 °F 68% 30.18 in 10.0 mi WSW 9.2 mph - N/A   Clear
10:53 PM 46.9 °F - 39.9 °F 77% 30.18 in 10.0 mi WSW 4.6 mph - N/A   Clear
11:53 PM 46.9 °F - 39.9 °F 77% 30.17 in 10.0 mi NE 3.5 mph - N/A   Clear